This is the latest recevied weather packets stored in our database for station/object AI9F. If no packets are shown the sender has not sent any weather packets the latest 10 day(s).
| Time | Temp. | Humidity | Pressure | Rain* | Wind** | Luminosity | Snow |
|---|---|---|---|---|---|---|---|
| 1777831518 | 18.89° C | 46% | 1016.9 hPa | 0 mm | - | 836 W/m² | - |
| 1777831215 | 18.89° C | 40% | 1016.9 hPa | 0 mm | - | 816 W/m² | - |
| 1777829092 | 18.33° C | 47% | 1018.1 hPa | 0 mm | - | 829 W/m² | - |
| 1777827274 | 17.78° C | 45% | 1018.5 hPa | 0 mm | - | 802 W/m² | - |
| 1777821517 | 14.44° C | 55% | 1019.6 hPa | 0 mm | - | 77 W/m² | - |
| 1777819094 | 13.33° C | 57% | 1019.6 hPa | 0 mm | - | 81 W/m² | - |
| 1777818487 | 12.78° C | 62% | 1019.6 hPa | 0 mm | - | 64 W/m² | - |
| 1777817880 | 12.22° C | 62% | 1019.9 hPa | 0 mm | - | 64 W/m² | - |
| 1777816668 | 12.22° C | 65% | 1020.2 hPa | 0 mm | - | 59 W/m² | - |
| 1777816365 | 11.67° C | 63% | 1020.3 hPa | 0 mm | - | 64 W/m² | - |
| 1777816063 | 11.67° C | 66% | 1020.2 hPa | 0 mm | - | 67 W/m² | - |
| 1777815155 | 11.67° C | 67% | 1020.2 hPa | 0 mm | - | 145 W/m² | - |
| 1777814851 | 11.11° C | 69% | 1020.1 hPa | 0 mm | - | 314 W/m² | - |
| 1777814547 | 11.11° C | 71% | 1020 hPa | 0 mm | - | 255 W/m² | - |
| 1777814244 | 11.11° C | 71% | 1019.9 hPa | 0 mm | - | 155 W/m² | - |
| 1777813639 | 10° C | 77% | 1019.9 hPa | 0 mm | - | 150 W/m² | - |
| 1777813336 | 10° C | 75% | 1019.8 hPa | 0 mm | - | 131 W/m² | - |
| 1777811823 | 8.89° C | 81% | 1020.1 hPa | 0 mm | - | 76 W/m² | - |
| 1777811521 | 8.33° C | 84% | 1019.9 hPa | 0 mm | - | 74 W/m² | - |
| 1777811216 | 8.33° C | 84% | 1020 hPa | 0 mm | - | 74 W/m² | - |
| 1777810914 | 7.78° C | 86% | 1020 hPa | 0 mm | - | 70 W/m² | - |
| 1777810610 | 7.22° C | 89% | 1019.8 hPa | 0 mm | - | 68 W/m² | - |
| 1777810308 | 7.22° C | 93% | 1019.9 hPa | 0 mm | - | 63 W/m² | - |
| 1777809398 | 5.56° C | 98% | 1019.8 hPa | 0 mm | - | 47 W/m² | - |
| 1777809096 | 5° C | 98% | 1019.9 hPa | 0 mm | - | 42 W/m² | - |
* Rain latest hour (hover to see other rain measurements)
** Current wind speed in m/s (hover to see current wind gust speed)